Wind_Speed
23 22 21 20 21 21 21 21 21 22 22 23 24 24 24 24 24 23 23 24 25 25 25 25 25 25 25 24 24 25 25 25 25 25 25 25 26 26 28 29 30 30 27 27 32 32 31 31 31 30 30 30
23 23 22 22 22 22 22 22 22 23 23 23 24 24 26 26 26 25 24 25 26 26 26 26 26 26 26 25 25 26 25 25 25 25 25 25 26 26 28 29 29 29 25 26 31 31 31 32 31 31 31 31
23 24 24 24 24 24 24 25 24 24 24 24 24 25 26 27 27 27 26 25 27 28 27 27 27 27 27 27 26 26 26 26 26 25 25 25 26 26 28 30 30 28 25 25 28 30 31 31 31 30 30 31
24 25 25 25 26 26 27 27 27 26 26 26 26 26 27 28 28 28 27 26 27 29 29 29 29 29 29 28 28 27 26 27 27 26 26 26 26 27 28 30 29 27 26 27 28 29 30 31 30 29 30 30
26 26 26 26 27 28 29 29 29 28 28 27 27 28 28 29 29 29 28 27 28 29 30 30 30 30 30 30 29 28 28 27 27 27 27 27 27 28 30 30 27 27 26 27 29 29 30 31 30 29 30 30
29 29 29 28 27 26 27 29 30 30 30 29 29 30 30 30 31 30 30 29 29 29 30 31 30 31 31 31 30 30 29 28 27 27 27 28 29 29 32 31 27 28 28 27 28 30 31 32 30 30 31 30
31 32 32 32 31 28 26 27 29 31 32 31 30 30 32 32 32 32 32 31 30 29 30 31 31 31 32 32 32 31 30 29 28 28 28 29 29 30 33 31 27 29 30 28 28 29 32 33 32 32 32 31
32 33 33 34 34 33 31 29 28 29 32 34 33 32 32 33 34 34 34 33 33 31 31 31 32 32 32 33 33 33 32 31 29 29 29 29 29 31 32 30 27 29 31 30 29 30 34 35 32 33 33 32
34 34 35 35 35 36 35 34 32 31 32 33 34 34 34 34 35 35 36 36 35 34 33 32 32 32 32 33 34 34 34 32 31 31 31 30 30 31 31 29 28 29 31 31 31 32 36 36 33 34 34 32
34 36 37 37 37 37 37 38 37 36 34 33 33 34 36 36 37 37 37 37 37 37 35 34 34 33 32 33 34 35 35 33 33 32 32 31 31 31 30 29 28 29 30 31 30 32 36 36 34 35 35 34
30 34 37 38 39 38 39 39 40 39 38 36 33 32 34 36 39 39 39 38 38 39 38 37 36 35 33 33 34 35 36 34 33 33 33 32 32 31 30 28 28 29 30 30 29 31 35 36 34 34 35 34
27 29 33 36 39 40 40 41 42 42 42 41 38 34 33 34 36 39 41 40 41 41 41 40 39 38 36 34 34 35 36 35 34 35 34 33 33 32 30 28 28 29 30 30 30 30 33 34 33 34 34 34
25 26 28 31 35 37 39 41 42 43 44 44 43 39 36 34 33 35 39 41 42 43 44 44 43 42 39 37 34 34 37 37 35 35 35 34 34 33 31 29 28 29 30 30 30 31 32 32 32 33 33 33
24 25 26 27 29 32 35 37 39 42 44 46 46 44 41 39 36 35 36 38 40 41 44 46 46 45 43 40 38 36 37 38 37 36 36 35 35 34 33 31 29 29 29 30 30 31 32 32 31 32 32 31
25 25 25 26 26 28 30 32 34 37 40 43 46 47 46 44 42 38 37 37 37 40 43 45 45 46 46 44 42 39 38 39 39 37 36 36 36 35 34 32 31 30 30 30 30 31 32 32 32 32 31 31
27 26 26 26 26 27 27 29 30 32 34 38 41 46 48 49 48 46 43 40 38 39 41 42 43 44 45 45 45 43 40 39 40 39 37 37 37 37 35 34 34 33 32 31 30 31 32 32 32 32 32 32
29 28 27 26 26 27 28 29 30 31 31 33 36 40 44 48 51 52 51 49 45 42 40 40 42 43 45 46 45 44 43 41 40 40 38 38 39 39 38 37 36 36 35 33 31 31 32 33 33 32 33 33
34 33 32 30 29 28 29 30 31 32 33 33 34 35 38 42 46 50 53 54 53 51 46 42 43 43 44 46 46 46 45 43 42 41 40 40 41 41 40 39 37 37 36 35 33 32 32 33 34 34 34 33
45 44 42 41 39 37 37 36 34 34 36 37 36 36 36 37 40 44 49 54 57 58 56 53 51 48 44 44 45 48 48 46 45 45 45 44 43 43 42 40 39 38 37 36 35 34 33 33 34 35 35 34
60 58 57 55 53 51 49 47 44 41 40 40 41 40 39 38 38 39 42 48 53 57 60 60 60 58 53 47 45 44 45 47 48 49 50 49 47 47 45 43 41 41 39 38 37 36 36 35 35 36 36 36
68 69 70 70 68 65 62 59 57 53 49 46 45 45 44 42 41 40 39 40 44 49 54 58 61 63 62 59 54 48 43 45 47 50 52 53 52 50 49 46 44 43 42 41 39 37 37 37 37 37 37 37
70 73 76 78 76 74 71 69 66 64 61 57 53 51 49 48 46 44 42 40 40 42 46 50 56 60 63 64 63 60 54 48 46 49 52 54 56 55 53 50 48 46 44 43 41 40 39 39 39 38 38 38
70 76 79 78 75 72 71 71 69 66 64 61 59 57 55 54 52 50 47 44 43 42 43 44 48 53 58 62 63 63 63 57 50 50 53 55 58 59 57 54 51 48 46 45 45 44 42 41 41 40 40 40
75 79 77 71 66 64 64 64 64 63 60 57 56 56 56 57 57 55 53 50 47 46 45 45 45 47 50 55 60 61 62 62 57 52 54 58 59 60 60 58 55 52 49 48 48 48 46 45 44 44 44 43
78 73 65 58 55 53 54 55 56 55 53 51 49 49 50 53 56 57 56 55 52 51 49 48 47 47 47 49 53 57 58 61 62 56 52 54 58 60 63 62 59 56 54 53 52 52 51 50 49 48 48 47
64 56 49 45 43 42 44 46 47 46 45 45 44 43 43 44 48 52 54 55 55 54 53 52 50 49 49 48 49 52 54 57 62 61 54 50 52 56 62 66 65 61 58 58 57 55 55 54 53 52 52 51
45 41 38 35 34 36 39 43 42 40 38 39 39 39 38 37 39 43 47 49 52 54 55 54 53 52 51 50 50 51 52 53 56 60 59 56 53 53 56 62 67 69 66 63 60 59 58 58 57 56 56 55
38 36 34 33 34 37 40 42 41 39 36 34 35 36 37 36 34 35 39 42 45 49 53 54 55 54 53 52 51 51 52 52 51 53 56 58 57 56 55 57 62 68 69 67 65 63 63 62 61 60 59 58
37 36 34 35 36 37 40 41 41 39 35 33 33 34 36 37 34 31 31 34 38 42 47 50 51 52 53 52 52 52 52 53 52 51 50 52 54 57 59 60 60 63 65 67 68 68 67 66 65 64 62 59
37 36 36 37 37 38 40 41 41 38 35 33 33 34 34 36 37 33 29 28 32 36 40 44 46 49 50 51 52 52 53 53 53 53 51 49 49 53 58 61 61 61 62 64 67 68 69 69 67 65 63 61
35 35 36 36 36 37 39 41 40 37 35 35 35 34 34 34 35 35 32 28 27 30 35 39 42 45 49 50 51 51 52 53 52 52 52 50 48 47 51 57 62 63 63 63 65 67 69 70 70 69 67 65
Wind_Direction
274 269 266 262 258 257 257 258 260 263 265 267 267 266 265 263 260 258 259 260 258 257 257 254 249 245 242 241 240 240 241 240 241 242 242 240 238 236 238 241 242 240 233 232 235 234 231 230 231 231 232 234
272 267 262 258 255 253 254 255 257 259 261 263 264 265 265 264 264 262 260 260 259 256 253 251 248 245 242 239 239 239 240 241 241 243 244 242 240 236 237 239 240 239 231 231 238 237 235 234 232 231 230 232
270 268 263 258 255 252 253 253 253 255 256 258 260 261 262 263 264 264 263 263 263 262 258 253 249 246 243 239 238 239 239 240 242 242 244 245 244 241 239 238 239 237 229 230 240 239 238 238 236 235 234 233
268 265 261 257 254 253 252 252 252 253 254 255 256 257 259 261 262 262 263 263 265 266 264 260 254 248 244 241 239 239 239 240 241 242 243 245 247 246 244 242 241 241 232 229 238 241 240 240 240 238 238 237
271 267 261 255 253 252 252 252 251 251 252 254 254 255 257 259 261 261 261 260 262 265 266 264 260 255 250 245 241 240 241 241 242 243 242 244 246 247 248 246 244 244 239 232 235 239 239 240 241 241 241 241
272 271 269 263 258 255 254 254 253 252 251 251 253 254 256 257 258 260 260 258 258 261 265 265 262 259 256 253 249 245 243 243 244 246 246 246 247 247 248 248 245 244 243 237 235 236 238 237 237 239 241 241
270 269 270 268 264 259 256 252 253 256 254 250 250 252 254 255 257 258 258 257 257 257 260 264 264 261 258 257 255 253 250 248 248 249 250 249 249 250 251 250 246 244 243 239 235 235 237 236 234 235 237 238
268 267 266 266 265 263 260 252 247 252 255 252 249 249 251 253 254 256 257 256 255 254 256 260 262 262 260 258 257 256 254 254 255 256 255 254 253 251 253 255 250 246 244 239 235 235 237 236 234 234 236 236
265 266 265 262 262 262 261 258 251 248 249 251 252 251 250 251 253 254 255 256 255 253 253 254 257 259 260 260 259 258 256 255 256 259 259 258 257 255 255 257 254 249 246 241 237 236 240 239 236 236 236 235
265 265 265 263 261 259 259 259 258 254 249 248 250 253 253 252 252 252 254 255 255 255 253 252 253 254 256 259 260 260 258 256 256 257 259 260 260 258 257 258 258 255 252 247 241 238 242 243 239 238 238 236
273 268 265 264 262 260 258 257 257 257 255 250 247 250 254 256 255 252 253 254 255 255 253 252 252 252 252 254 257 259 259 257 257 257 257 258 259 259 259 260 260 259 257 253 247 241 243 245 242 241 240 239
282 277 272 268 265 263 261 259 257 256 256 254 250 247 247 253 258 256 254 253 254 255 254 252 252 251 250 251 253 257 259 257 256 257 257 257 258 259 259 259 259 260 259 256 253 247 244 245 244 242 242 240
281 280 278 274 270 267 264 262 260 258 257 255 253 250 245 246 251 255 257 256 255 255 256 254 252 250 249 249 249 252 257 257 255 256 257 257 257 257 258 257 257 259 259 257 255 252 248 246 245 243 243 240
279 277 276 276 274 272 270 266 264 262 260 258 255 252 248 246 246 248 253 257 257 255 256 255 254 252 250 248 247 246 251 256 255 254 255 256 256 256 256 256 256 257 258 257 255 253 251 249 247 245 243 241
280 277 274 273 273 273 273 272 269 266 263 261 259 255 250 247 246 247 248 251 253 253 253 252 252 254 253 250 249 246 247 251 252 251 252 254 254 254 254 254 253 253 254 255 254 253 252 249 247 246 245 242
279 277 275 274 273 272 272 272 271 271 268 265 262 260 256 250 247 246 247 249 249 249 249 247 249 253 254 253 251 249 248 248 250 249 248 250 252 252 251 251 251 251 251 252 252 252 252 249 246 244 243 242
278 276 274 274 275 276 275 273 271 270 270 269 267 264 261 257 251 247 245 246 247 247 247 246 246 249 251 252 251 251 249 247 247 248 247 246 248 249 249 249 250 251 251 251 252 251 251 249 246 242 240 240
280 277 276 274 274 276 277 277 276 274 272 269 268 266 264 261 257 253 248 245 244 245 246 246 246 246 246 248 249 248 247 245 243 246 249 248 246 247 247 247 249 251 252 252 252 251 250 249 247 243 239 237
286 283 280 278 275 274 275 275 275 275 275 273 270 267 265 263 260 256 253 249 245 244 245 246 248 248 246 246 247 246 245 244 241 244 249 251 247 246 245 245 246 247 250 251 251 251 250 248 247 244 241 237
297 294 291 288 284 280 278 277 275 274 274 274 273 270 266 263 261 258 255 253 250 247 245 244 246 249 250 250 251 249 246 244 243 244 248 250 248 246 244 242 244 245 247 248 250 252 252 250 248 245 243 239
302 302 301 298 295 291 286 283 281 279 277 274 272 271 269 266 263 260 257 254 253 252 249 245 243 245 248 251 253 252 249 247 246 246 247 247 247 247 245 242 241 243 245 246 247 249 251 251 250 247 245 243
301 303 303 301 299 296 293 290 287 284 282 279 275 270 268 267 264 261 259 256 254 253 252 249 245 243 244 247 251 253 252 250 249 248 247 245 245 246 246 243 241 240 243 246 247 247 248 249 250 249 247 245
298 301 301 299 297 296 294 292 290 287 284 282 278 273 268 265 264 262 259 258 256 254 252 250 248 245 243 244 247 251 252 251 250 250 250 246 244 244 245 244 243 241 242 244 246 246 246 246 248 249 248 246
297 300 299 296 294 293 292 291 290 289 286 283 278 273 269 265 263 262 260 257 256 256 254 252 250 248 245 243 243 245 249 250 249 249 251 249 247 245 244 244 244 242 242 243 244 244 244 243 243 244 245 244
300 301 298 294 291 290 288 287 286 287 287 284 279 273 268 264 262 261 260 258 255 255 255 254 252 250 248 246 244 242 243 247 247 247 247 247 247 247 246 244 244 243 243 243 244 243 242 241 240 240 241 242
301 298 294 292 292 291 288 285 284 285 286 286 283 276 268 263 260 258 257 257 255 253 253 252 252 251 250 249 248 245 242 241 242 244 245 244 243 246 248 247 245 245 244 244 243 243 244 243 241 239 240 240
299 294 291 289 288 287 285 284 285 285 286 287 287 284 276 266 261 259 256 254 254 252 251 250 250 250 250 250 250 249 247 243 241 241 243 244 242 241 245 248 248 247 246 245 244 244 245 245 244 242 240 240
296 292 289 285 281 280 280 282 285 286 287 288 288 289 287 278 267 262 259 255 253 252 251 249 249 249 249 249 248 249 249 248 245 242 240 243 245 242 241 244 248 249 248 245 243 242 243 243 244 243 242 241
291 288 286 286 283 281 281 282 283 285 286 287 286 287 289 288 280 269 264 260 255 251 250 249 248 248 248 247 247 247 248 248 248 246 242 241 244 245 244 243 245 247 248 247 244 242 242 242 243 243 243 243
285 284 283 284 285 284 284 283 283 284 286 286 286 286 285 287 287 280 270 264 259 254 251 249 246 244 244 244 245 244 245 246 246 247 246 244 242 245 246 245 244 245 246 248 247 244 242 241 243 245 245 245
285 283 284 284 283 284 285 285 284 285 287 289 288 286 285 284 286 286 280 270 262 259 256 253 248 244 242 241 241 242 243 244 244 244 244 245 244 244 246 246 244 244 245 246 247 247 243 241 241 243 244 244
Height
3088 3088 3088 3088 3088 3088 3089 3089 3089 3090 3090 3090 3091 3091 3091 3090 3090 3091 3092 3092 3093 3095 3096 3097 3098 3098 3099 3099 3100 3100 3100 3101 3101 3102 3102 3103 3104 3105 3105 3105 3106 3108 3112 3113 3111 3112 3113 3114 3115 3116 3118 3119
3086 3085 3086 3086 3086 3086 3086 3086 3087 3087 3088 3088 3088 3089 3089 3088 3088 3089 3089 3090 3090 3091 3092 3094 3095 3095 3096 3097 3097 3098 3098 3099 3099 3100 3100 3101 3102 3103 3103 3103 3104 3106 3110 3111 3108 3110 3111 3112 3113 3114 3115 3116
3084 3083 3083 3084 3083 3083 3083 3083 3084 3084 3085 3085 3086 3086 3086 3086 3086 3087 3087 3088 3088 3088 3089 3090 3091 3092 3093 3094 3094 3095 3095 3096 3097 3098 3099 3099 3100 3101 3101 3101 3103 3104 3108 3109 3106 3107 3109 3110 3111 3113 3113 3114
3081 3081 3081 3081 3081 3081 3081 3081 3081 3081 3082 3083 3083 3083 3083 3083 3084 3084 3085 3085 3085 3086 3086 3087 3088 3088 3089 3090 3091 3092 3092 3093 3094 3095 3096 3097 3097 3098 3098 3099 3101 3103 3106 3107 3105 3105 3107 3108 3109 3111 3112 3112
3078 3078 3078 3078 3078 3078 3078 3078 3079 3079 3079 3080 3080 3080 3080 3080 3080 3081 3082 3082 3083 3083 3083 3084 3085 3085 3085 3085 3087 3088 3089 3090 3091 3092 3093 3094 3094 3095 3095 3096 3099 3101 3103 3104 3104 3104 3104 3106 3107 3109 3109 3110
3076 3075 3075 3075 3075 3076 3076 3077 3076 3076 3077 3077 3077 3077 3077 3077 3077 3078 3079 3079 3080 3080 3081 3081 3082 3082 3082 3082 3083 3084 3085 3086 3087 3088 3089 3090 3091 3092 3090 3093 3097 3098 3099 3101 3102 3102 3102 3103 3105 3106 3107 3108
3073 3073 3072 3072 3072 3072 3073 3074 3074 3074 3074 3074 3074 3074 3074 3074 3074 3074 3075 3076 3076 3077 3077 3078 3079 3079 3079 3079 3080 3081 3081 3082 3083 3084 3085 3086 3087 3088 3086 3090 3095 3095 3095 3098 3100 3099 3098 3099 3102 3103 3103 3105
3070 3070 3070 3070 3070 3069 3069 3069 3070 3071 3071 3071 3071 3071 3071 3071 3071 3071 3071 3072 3072 3073 3073 3074 3075 3076 3077 3076 3077 3077 3078 3079 3080 3080 3081 3082 3083 3083 3083 3087 3091 3091 3091 3094 3096 3096 3094 3095 3099 3099 3100 3102
3066 3066 3066 3066 3067 3067 3066 3065 3066 3066 3067 3067 3068 3068 3068 3068 3068 3067 3067 3068 3068 3069 3070 3070 3071 3073 3074 3074 3074 3074 3075 3076 3077 3077 3077 3078 3079 3079 3081 3083 3085 3086 3087 3090 3093 3092 3090 3091 3095 3096 3097 3099
3064 3063 3063 3063 3063 3063 3063 3063 3062 3062 3062 3063 3064 3065 3065 3064 3064 3064 3064 3064 3064 3065 3066 3066 3067 3068 3070 3071 3071 3070 3071 3073 3073 3073 3073 3074 3075 3076 3078 3079 3081 3082 3083 3085 3089 3089 3086 3087 3091 3092 3093 3096
3060 3060 3060 3059 3059 3059 3059 3059 3059 3059 3059 3059 3060 3061 3062 3061 3060 3060 3060 3060 3060 3060 3061 3062 3063 3064 3066 3066 3067 3067 3067 3069 3069 3069 3070 3070 3071 3072 3074 3076 3077 3078 3079 3081 3084 3085 3083 3084 3087 3089 3090 3092
3056 3056 3056 3055 3055 3055 3055 3055 3055 3055 3055 3055 3056 3057 3058 3057 3057 3057 3056 3057 3057 3056 3057 3057 3058 3059 3061 3062 3063 3063 3063 3064 3065 3065 3066 3067 3067 3068 3070 3072 3073 3074 3075 3077 3079 3081 3081 3081 3083 3085 3086 3088
3053 3052 3052 3051 3051 3051 3051 3051 3050 3051 3051 3051 3052 3053 3054 3053 3053 3053 3052 3053 3053 3053 3052 3053 3053 3054 3056 3057 3059 3059 3058 3059 3061 3061 3062 3063 3063 3064 3066 3068 3070 3070 3071 3073 3075 3076 3077 3078 3079 3081 3082 3084
3049 3049 3048 3048 3047 3047 3046 3046 3046 3046 3046 3046 3047 3048 3049 3049 3049 3049 3048 3048 3049 3048 3048 3048 3048 3049 3052 3053 3054 3055 3054 3055 3057 3058 3058 3058 3059 3060 3062 3064 3066 3067 3067 3069 3070 3072 3073 3075 3076 3077 3078 3080
3045 3045 3044 3043 3043 3042 3042 3042 3041 3041 3041 3042 3042 3042 3043 3044 3044 3044 3044 3044 3044 3044 3043 3043 3044 3044 3047 3048 3050 3051 3051 3051 3052 3054 3054 3054 3055 3056 3058 3060 3061 3063 3063 3065 3066 3068 3069 3071 3073 3073 3074 3076
3042 3041 3040 3039 3038 3038 3038 3037 3037 3036 3036 3036 3037 3037 3038 3038 3039 3039 3039 3039 3039 3039 3039 3039 3039 3039 3041 3043 3045 3047 3048 3048 3047 3049 3050 3050 3050 3051 3053 3055 3056 3058 3060 3061 3063 3064 3066 3067 3069 3070 3071 3072
3037 3036 3035 3035 3034 3033 3033 3032 3032 3032 3031 3031 3031 3031 3032 3033 3033 3033 3033 3034 3034 3034 3034 3034 3034 3035 3035 3037 3039 3041 3043 3043 3043 3043 3045 3046 3046 3046 3047 3049 3051 3054 3055 3057 3059 3061 3062 3063 3065 3067 3068 3069
3032 3031 3030 3030 3029 3028 3028 3027 3027 3026 3026 3026 3025 3025 3025 3026 3027 3027 3028 3027 3028 3028 3029 3029 3029 3030 3030 3031 3033 3035 3037 3038 3038 3038 3039 3041 3041 3041 3042 3044 3047 3049 3051 3053 3055 3057 3058 3060 3061 3063 3064 3065
3024 3024 3024 3023 3023 3022 3022 3022 3022 3021 3020 3019 3019 3020 3020 3020 3020 3020 3021 3021 3021 3021 3022 3023 3023 3024 3025 3026 3027 3028 3030 3032 3032 3033 3034 3035 3037 3037 3037 3039 3041 3043 3046 3048 3050 3052 3054 3056 3057 3058 3060 3061
3013 3013 3013 3013 3013 3014 3014 3014 3014 3015 3015 3013 3013 3013 3014 3014 3013 3014 3014 3014 3014 3015 3015 3016 3017 3018 3020 3021 3021 3022 3024 3026 3027 3028 3028 3029 3031 3032 3033 3034 3036 3038 3041 3043 3046 3048 3049 3051 3053 3054 3055 3057
3004 3002 3001 3001 3001 3002 3003 3003 3004 3005 3007 3007 3007 3006 3006 3007 3007 3008 3008 3008 3007 3008 3009 3010 3011 3012 3013 3014 3015 3016 3018 3019 3021 3022 3023 3024 3025 3026 3028 3029 3030 3033 3035 3038 3041 3043 3044 3046 3048 3050 3051 3053
2999 2997 2995 2992 2991 2990 2990 2991 2993 2994 2996 2997 2999 2999 2999 2999 3000 3000 3001 3001 3001 3001 3001 3002 3004 3005 3006 3007 3008 3010 3011 3013 3015 3016 3017 3018 3019 3020 3022 3024 3025 3027 3030 3033 3036 3038 3040 3041 3043 3045 3046 3048
2996 2994 2991 2987 2984 2982 2980 2980 2980 2982 2984 2986 2987 2989 2991 2991 2991 2992 2993 2994 2994 2994 2994 2995 2996 2997 2999 2999 3001 3002 3004 3006 3007 3009 3010 3012 3013 3015 3016 3018 3021 3023 3025 3028 3030 3032 3034 3036 3037 3039 3041 3042
2991 2988 2985 2982 2978 2976 2973 2971 2970 2971 2972 2974 2976 2978 2980 2981 2982 2983 2984 2986 2986 2986 2987 2988 2989 2990 2991 2991 2992 2994 2996 2999 3000 3002 3003 3005 3007 3008 3010 3012 3014 3017 3020 3022 3024 3026 3027 3029 3031 3033 3034 3036
2983 2980 2977 2974 2971 2969 2967 2965 2963 2962 2962 2963 2965 2967 2968 2970 2971 2973 2974 2975 2977 2978 2978 2979 2981 2982 2984 2984 2984 2985 2988 2991 2993 2995 2996 2997 2999 3000 3002 3004 3007 3011 3014 3015 3016 3019 3020 3022 3024 3026 3028 3030
2975 2972 2969 2966 2964 2962 2960 2958 2957 2956 2955 2954 2954 2956 2958 2959 2960 2961 2963 2964 2966 2968 2969 2970 2972 2974 2976 2977 2977 2978 2979 2981 2984 2987 2989 2990 2990 2992 2994 2996 2999 3003 3005 3007 3009 3013 3015 3016 3017 3019 3021 3023
2967 2964 2962 2960 2959 2956 2954 2952 2951 2951 2950 2948 2947 2946 2948 2950 2951 2951 2952 2954 2955 2957 2959 2961 2962 2964 2966 2968 2969 2970 2972 2973 2975 2977 2980 2983 2983 2985 2986 2988 2990 2992 2996 3000 3004 3006 3007 3009 3011 3012 3013 3016
2961 2958 2957 2955 2953 2951 2949 2947 2946 2945 2944 2944 2942 2940 2939 2941 2943 2943 2943 2945 2945 2947 2949 2951 2953 2955 2957 2959 2961 2962 2964 2966 2968 2969 2971 2975 2977 2978 2978 2980 2981 2983 2987 2991 2994 2997 2999 3001 3003 3003 3006 3010
2955 2953 2951 2949 2948 2946 2944 2942 2941 2940 2939 2938 2937 2936 2934 2933 2934 2936 2936 2937 2937 2938 2939 2942 2944 2947 2948 2950 2951 2953 2955 2958 2960 2962 2964 2966 2969 2970 2971 2973 2974 2976 2979 2980 2984 2988 2991 2993 2993 2996 3001 3005
2950 2947 2945 2944 2942 2941 2939 2937 2935 2934 2933 2933 2932 2930 2929 2928 2927 2928 2930 2930 2930 2930 2931 2932 2935 2937 2939 2941 2943 2944 2946 2948 2952 2954 2957 2959 2961 2963 2965 2967 2968 2968 2971 2973 2975 2978 2981 2986 2989 2992 2996 2998
2945 2942 2941 2939 2938 2936 2934 2931 2930 2929 2928 2927 2926 2925 2924 2923 2922 2921 2923 2924 2924 2924 2925 2925 2926 2928 2929 2932 2934 2936 2938 2940 2943 2946 2949 2951 2953 2955 2958 2960 2959 2960 2964 2965 2966 2969 2973 2979 2982 2984 2987 2989